Home   Weather   Orkanger/Fannrem   Past weeks

Flag for Norway Past Weather in Orkanger/Fannrem, Norway — Yesterday and Last 2 Weeks

Now
47 °F

Cool.


Feels Like: 44 °F
Forecast: 33 / 46 °F
Wind: 6 mph from Southeast

Location: Marstein

Current Time: Apr 28, 2017 at 6:32:13 pm

Latest Report: Apr 28, 2017 at 5:00 pm


Visibility: N/A

Pressure: 30.09 "Hg

Humidity: 33%

Dew Point: 20 °F

Location of Orkanger/FannremLocation

Past Weather in Orkanger/Fannrem — Graph

°F

Orkanger/Fannrem Temperature Yesterday

Maximum temperature yesterday: 47 °F (at 2:00 pm)
Minimum temperature yesterday: 31 °F (at 11:00 pm)
Average temperature yesterday: 37 °F

High & Low Weather Summary for the Past Weeks

 TemperatureHumidityPressure
High50 °F (Apr 20, 7:00 am)94% (Apr 24, 7:00 am)30.54 "Hg (Apr 24, 7:00 am)
Low28 °F (Apr 14, 9:00 am)25% (Apr 18, 3:00 pm)29.60 "Hg (Apr 13, 5:00 pm)
Average37 °F65%29.93 "Hg
* Reported Apr 13 5:00 pm — Apr 28 5:00 pm, Orkanger/Fannrem, Weather by CustomWeather, © 2017

Note: Actual official high and low records may vary slightly from our data, if they occured in-between our weather recording intervals... More about our weather records

Advertising

Orkanger/Fannrem Weather History for the Previous 24 Hours

Scroll right to see more
 ConditionsComfort  
Time TempWeatherWind HumidityBarometerVisibility
5:00 pm
Fri, Apr 28
47 °FCool.6 mph33%30.09 "HgN/A
4:00 pm48 °FCool.6 mph30%30.09 "HgN/A
3:00 pm48 °FCool.3 mph32%30.09 "HgN/A
2:00 pm49 °FCool.6 mph28%30.10 "HgN/A
1:00 pm48 °FCool.6 mph30%30.11 "HgN/A
12:00 pm47 °FCool.1 mph32%30.12 "HgN/A
11:00 am42 °FQuite cool.3 mph35%30.14 "HgN/A
10:00 am41 °FQuite cool.2 mph36%30.14 "HgN/A
9:00 am34 °FChilly.2 mph50%30.13 "HgN/A
8:00 am32 °FChilly.5 mph59%30.13 "HgN/A
7:00 am31 °FChilly.3 mph59%30.12 "HgN/A
6:00 am31 °FChilly.3 mph62%30.11 "HgN/A
5:00 am32 °FChilly.3 mph62%30.09 "HgN/A
4:00 am32 °FChilly.5 mph65%30.08 "HgN/A
3:00 am33 °FChilly.5 mph63%30.06 "HgN/A
2:00 am32 °FChilly.2 mph66%30.04 "HgN/A
1:00 am33 °FChilly.2 mph81%30.03 "HgN/A
12:00 am31 °FChilly.1 mph90%30.01 "HgN/A
11:00 pm
Thu, Apr 27
31 °FChilly.No wind87%29.98 "HgN/A
10:00 pm34 °FChilly.1 mph80%29.97 "HgN/A
9:00 pm38 °FChilly.1 mph68%29.95 "HgN/A
8:00 pm40 °FQuite cool.2 mph64%29.92 "HgN/A
7:00 pm41 °FQuite cool.3 mph60%29.90 "HgN/A
6:00 pm40 °FChilly.1 mph64%29.88 "HgN/A
Weather by CustomWeather, © 2017

See weather overviewHow to use our weather pages